Retour au catalogue

FENGYUN 1C DEB

ActifSSO
NORAD 31362·DEBRIS·🇨🇳 China

Lancé May 10, 1999 depuis Taiyuan Satellite Launch Center

Loading…

Prochains Passages (prochaines 24 heures)

TLE

FraisSource: Space-Track

Époque: Sep 14, 2026, 04:58 UTC

1 31362U 99025BRS 26257.20720617  .00000143  00000-0  91322-4 0  9996
2 31362  98.6701 249.6159 0018810  28.0332 332.1852 14.17542921  4688

Suivez FENGYUN 1C DEB en temps réel avec AllMySat

Download on the App Store